• In Österreich
  • Länderverzeichnis
  • Für 7 Tage
  • Wassertemperatur
  • Satellitenkarten
  • Wetterkarte
  • News
  • Widgets
  • user-avatar
    Anmelden

    Stündliche Wetter Koudougou

    Heute, 23 September, Sonntag

    Zeit Temperatur Niederschläge Wind Luftdruck Luftfeuchtigkeit
    00:00 +28°C° 0.8 mm 3 m/S 731 mmHg 79%
    01:00 +28°C° 0.1 mm 3 m/S 731 mmHg 80%
    02:00 +28°C° 0.1 mm 3 m/S 731 mmHg 80%
    03:00 +28°C° 0.1 mm 3 m/S 731 mmHg 81%
    04:00 +27°C° 0 mm 3 m/S 731 mmHg 82%
    05:00 +27°C° 0 mm 2 m/S 731 mmHg 83%
    06:00 +27°C° 0 mm 2 m/S 732 mmHg 85%
    07:00 +28°C° 0 mm 3 m/S 732 mmHg 80%
    08:00 +29°C° 0 mm 3 m/S 733 mmHg 75%
    09:00 +30°C° 0 mm 4 m/S 733 mmHg 70%
    10:00 +33°C° 0 mm 3 m/S 733 mmHg 64%
    11:00 +34°C° 0 mm 3 m/S 733 mmHg 59%
    12:00 +36°C° 0 mm 3 m/S 733 mmHg 53%
    13:00 +36°C° 0 mm 2 m/S 732 mmHg 50%
    14:00 +37°C° 0 mm 2 m/S 731 mmHg 47%
    15:00 +37°C° 0 mm 2 m/S 731 mmHg 45%
    16:00 +36°C° 0 mm 2 m/S 731 mmHg 49%
    17:00 +35°C° 0 mm 2 m/S 731 mmHg 54%
    18:00 +34°C° 0 mm 2 m/S 731 mmHg 58%
    19:00 +33°C° 0.1 mm 3 m/S 731 mmHg 61%
    20:00 +31°C° 0.1 mm 3 m/S 732 mmHg 63%
    21:00 +31°C° 0.1 mm 3 m/S 732 mmHg 66%
    22:00 +30°C° 0.2 mm 3 m/S 732 mmHg 68%
    23:00 +29°C° 0.2 mm 3 m/S 732 mmHg 71%

    Morgen, 24 September, Montag

    Zeit Temperatur Niederschläge Wind Luftdruck Luftfeuchtigkeit
    00:00 +29°C° 0.2 mm 2 m/S 732 mmHg 73%
    01:00 +29°C° 0.9 mm 2 m/S 732 mmHg 76%
    02:00 +28°C° 0.9 mm 2 m/S 732 mmHg 78%
    03:00 +28°C° 0.9 mm 2 m/S 732 mmHg 80%
    04:00 +28°C° 0.1 mm 2 m/S 732 mmHg 81%
    05:00 +28°C° 0.1 mm 2 m/S 732 mmHg 81%
    06:00 +27°C° 0.1 mm 3 m/S 732 mmHg 81%
    07:00 +29°C° 0 mm 3 m/S 732 mmHg 77%
    08:00 +30°C° 0 mm 3 m/S 733 mmHg 73%
    09:00 +31°C° 0 mm 3 m/S 734 mmHg 69%
    10:00 +32°C° 0.1 mm 2 m/S 734 mmHg 63%
    11:00 +34°C° 0.1 mm 2 m/S 733 mmHg 57%
    12:00 +35°C° 0.1 mm 1 m/S 733 mmHg 51%
    13:00 +36°C° 0.1 mm 2 m/S 732 mmHg 49%
    14:00 +36°C° 0.1 mm 2 m/S 731 mmHg 48%
    15:00 +37°C° 0.1 mm 2 m/S 731 mmHg 46%
    16:00 +36°C° 0 mm 2 m/S 731 mmHg 51%
    17:00 +35°C° 0 mm 2 m/S 731 mmHg 57%
    18:00 +33°C° 0 mm 3 m/S 731 mmHg 62%
    19:00 +31°C° 0.6 mm 3 m/S 731 mmHg 66%
    20:00 +31°C° 0.6 mm 3 m/S 732 mmHg 70%
    21:00 +30°C° 0.6 mm 3 m/S 732 mmHg 73%
    22:00 +29°C° 0.5 mm 3 m/S 732 mmHg 74%
    23:00 +29°C° 0.5 mm 3 m/S 732 mmHg 75%

    übermorgen, 25 September, Dienstag

    Zeit Temperatur Niederschläge Wind Luftdruck Luftfeuchtigkeit
    00:00 +28°C° 0.5 mm 3 m/S 732 mmHg 76%
    01:00 +28°C° 1.1 mm 3 m/S 732 mmHg 77%
    02:00 +28°C° 1.1 mm 3 m/S 731 mmHg 78%
    03:00 +28°C° 1.1 mm 3 m/S 731 mmHg 80%
    04:00 +27°C° 0 mm 3 m/S 731 mmHg 80%
    05:00 +27°C° 0 mm 2 m/S 731 mmHg 81%
    06:00 +27°C° 0 mm 2 m/S 731 mmHg 82%
    07:00 +28°C° 0 mm 3 m/S 732 mmHg 76%
    08:00 +30°C° 0 mm 3 m/S 732 mmHg 71%
    09:00 +32°C° 0 mm 4 m/S 733 mmHg 66%
    10:00 +34°C° 0 mm 4 m/S 732 mmHg 59%
    11:00 +35°C° 0 mm 5 m/S 732 mmHg 53%
    12:00 +37°C° 0 mm 5 m/S 731 mmHg 47%
    13:00 +38°C° 0 mm 4 m/S 731 mmHg 44%
    14:00 +38°C° 0 mm 3 m/S 730 mmHg 41%
    15:00 +39°C° 0 mm 2 m/S 729 mmHg 38%
    16:00 +37°C° 0 mm 2 m/S 729 mmHg 43%
    17:00 +36°C° 0 mm 2 m/S 729 mmHg 47%
    18:00 +35°C° 0 mm 3 m/S 729 mmHg 52%
    19:00 +34°C° 0 mm 3 m/S 730 mmHg 54%
    20:00 +33°C° 0 mm 3 m/S 730 mmHg 57%
    21:00 +31°C° 0 mm 3 m/S 730 mmHg 59%
    22:00 +31°C° 0 mm 3 m/S 730 mmHg 61%
    23:00 +30°C° 0 mm 3 m/S 730 mmHg 63%

    26 September, Mittwoch

    Zeit Temperatur Niederschläge Wind Luftdruck Luftfeuchtigkeit
    00:00 +30°C° 0 mm 3 m/S 731 mmHg 65%
    01:00 +29°C° 0 mm 3 m/S 730 mmHg 69%
    02:00 +29°C° 0 mm 4 m/S 730 mmHg 73%
    03:00 +28°C° 0 mm 4 m/S 730 mmHg 77%
    04:00 +28°C° 0.1 mm 4 m/S 731 mmHg 81%
    05:00 +27°C° 0.1 mm 4 m/S 731 mmHg 84%
    06:00 +27°C° 0.1 mm 4 m/S 731 mmHg 87%
    07:00 +28°C° 0 mm 4 m/S 732 mmHg 82%
    08:00 +29°C° 0 mm 4 m/S 732 mmHg 78%
    09:00 +30°C° 0 mm 4 m/S 733 mmHg 73%
    10:00 +33°C° 0 mm 5 m/S 732 mmHg 67%
    11:00 +34°C° 0 mm 5 m/S 732 mmHg 61%
    12:00 +36°C° 0 mm 5 m/S 732 mmHg 54%
    13:00 +36°C° 0 mm 4 m/S 731 mmHg 52%
    14:00 +37°C° 0 mm 4 m/S 731 mmHg 49%
    15:00 +37°C° 0 mm 4 m/S 730 mmHg 47%
    16:00 +36°C° 0 mm 3 m/S 730 mmHg 51%
    17:00 +35°C° 0 mm 3 m/S 730 mmHg 56%
    18:00 +32°C° 0 mm 2 m/S 731 mmHg 60%
    19:00 +32°C° 0 mm 2 m/S 731 mmHg 61%
    20:00 +31°C° 0 mm 2 m/S 732 mmHg 62%
    21:00 +30°C° 0 mm 2 m/S 732 mmHg 64%
    22:00 +30°C° 0 mm 2 m/S 732 mmHg 65%
    23:00 +30°C° 0 mm 3 m/S 732 mmHg 66%

    27 September, Donnerstag

    Zeit Temperatur Niederschläge Wind Luftdruck Luftfeuchtigkeit
    00:00 +29°C° 0 mm 3 m/S 732 mmHg 67%
    01:00 +29°C° 0 mm 3 m/S 731 mmHg 69%
    02:00 +28°C° 0 mm 3 m/S 731 mmHg 70%
    03:00 +28°C° 0 mm 3 m/S 730 mmHg 72%
    04:00 +27°C° 0 mm 3 m/S 731 mmHg 73%
    05:00 +27°C° 0 mm 3 m/S 731 mmHg 74%
    06:00 +26°C° 0 mm 3 m/S 732 mmHg 75%
    07:00 +28°C° 0 mm 2 m/S 732 mmHg 70%
    08:00 +29°C° 0 mm 2 m/S 733 mmHg 65%
    09:00 +30°C° 0 mm 2 m/S 733 mmHg 60%
    10:00 +31°C° 0 mm 3 m/S 733 mmHg 57%
    11:00 +34°C° 0 mm 3 m/S 732 mmHg 53%
    12:00 +35°C° 0 mm 4 m/S 731 mmHg 50%
    13:00 +35°C° 0 mm 4 m/S 731 mmHg 49%
    14:00 +36°C° 0 mm 3 m/S 730 mmHg 47%
    15:00 +36°C° 0 mm 2 m/S 729 mmHg 46%
    16:00 +35°C° 0 mm 2 m/S 730 mmHg 50%
    17:00 +34°C° 0 mm 2 m/S 730 mmHg 54%
    18:00 +32°C° 0 mm 1 m/S 730 mmHg 58%
    19:00 +31°C° 0 mm 1 m/S 731 mmHg 59%
    20:00 +31°C° 0 mm 1 m/S 731 mmHg 60%
    21:00 +30°C° 0 mm 1 m/S 732 mmHg 61%
    22:00 +30°C° 0 mm 2 m/S 732 mmHg 62%
    23:00 +30°C° 0 mm 2 m/S 731 mmHg 64%

    28 September, Freitag

    Zeit Temperatur Niederschläge Wind Luftdruck Luftfeuchtigkeit
    00:00 +29°C° 0 mm 2 m/S 731 mmHg 65%
    01:00 +29°C° 0 mm 3 m/S 731 mmHg 67%
    02:00 +28°C° 0 mm 3 m/S 730 mmHg 69%
    03:00 +28°C° 0 mm 3 m/S 730 mmHg 72%
    04:00 +28°C° 0 mm 3 m/S 730 mmHg 73%
    05:00 +27°C° 0 mm 3 m/S 731 mmHg 75%
    06:00 +27°C° 0 mm 3 m/S 731 mmHg 77%
    07:00 +29°C° 0 mm 4 m/S 731 mmHg 72%
    08:00 +30°C° 0 mm 4 m/S 732 mmHg 68%
    09:00 +33°C° 0 mm 5 m/S 732 mmHg 64%
    10:00 +34°C° 0 mm 5 m/S 732 mmHg 59%
    11:00 +35°C° 0 mm 4 m/S 731 mmHg 54%
    12:00 +37°C° 0 mm 4 m/S 731 mmHg 49%
    13:00 +37°C° 0 mm 4 m/S 730 mmHg 49%
    14:00 +37°C° 0 mm 3 m/S 730 mmHg 48%
    15:00 +37°C° 0 mm 2 m/S 729 mmHg 48%
    16:00 +36°C° 0 mm 2 m/S 730 mmHg 51%
    17:00 +35°C° 0 mm 2 m/S 730 mmHg 54%
    18:00 +34°C° 0 mm 2 m/S 730 mmHg 57%
    19:00 +33°C° 1 mm 3 m/S 730 mmHg 63%
    20:00 +32°C° 1 mm 4 m/S 731 mmHg 68%
    21:00 +30°C° 1 mm 4 m/S 731 mmHg 74%
    22:00 +29°C° 0.6 mm 4 m/S 731 mmHg 77%
    23:00 +29°C° 0.6 mm 4 m/S 731 mmHg 79%
    Mehr zeigen